�������l�o���
Date,Time,MP-1(��Sv/h),MP-2(��Sv/h),MP-3(��Sv/h),MP-4(��Sv/h),MP-5(��Sv/h),MP-6(��Sv/h),MP-7(��Sv/h),MP-8(��Sv/h),����,����(m/s),���J
2023/01/01,00:00,0.565,0.818,0.514,1.048,0.722,0.321,0.583,0.555,��,8.0,��
2023/01/01,00:10,0.565,0.817,0.513,1.048,0.723,0.322,0.583,0.554,���k��,9.1,��
2023/01/01,00:20,0.566,0.816,0.514,1.048,0.722,0.322,0.584,0.554,���k��,6.6,��
2023/01/01,00:30,0.565,0.818,0.512,1.048,0.721,0.322,0.583,0.555,���k��,5.8,��
2023/01/01,00:40,0.565,0.816,0.512,1.049,0.722,0.322,0.583,0.555,���k��,5.5,��
2023/01/01,00:50,0.566,0.818,0.514,1.048,0.721,0.322,0.583,0.555,���k��,5.2,��
2023/01/01,01:00,0.565,0.820,0.514,1.047,0.720,0.323,0.582,0.555,��,5.6,��
2023/01/01,01:10,0.565,0.816,0.513,1.048,0.720,0.322,0.584,0.555,��,4.5,��
2023/01/01,01:20,0.564,0.817,0.513,1.049,0.722,0.322,0.584,0.555,���k��,4.4,��
2023/01/01,01:30,0.564,0.816,0.512,1.046,0.719,0.323,0.583,0.553,��,4.1,��
2023/01/01,01:40,0.563,0.816,0.512,1.049,0.721,0.323,0.584,0.554,��,5.2,��
2023/01/01,01:50,0.565,0.817,0.512,1.048,0.720,0.323,0.583,0.554,��,5.8,��
2023/01/01,02:00,0.564,0.817,0.513,1.049,0.721,0.323,0.583,0.555,��,6.3,��
2023/01/01,02:10,0.565,0.816,0.512,1.048,0.720,0.322,0.584,0.557,��,6.6,��
2023/01/01,02:20,0.564,0.816,0.512,1.046,0.720,0.322,0.583,0.555,��,5.8,��
2023/01/01,02:30,0.564,0.817,0.513,1.050,0.721,0.322,0.583,0.554,��,6.4,��
2023/01/01,02:40,0.565,0.817,0.513,1.047,0.721,0.322,0.584,0.554,���쐼,6.7,��
2023/01/01,02:50,0.566,0.816,0.512,1.047,0.721,0.321,0.583,0.554,��,7.1,��
2023/01/01,03:00,0.564,0.816,0.513,1.049,0.722,0.323,0.583,0.554,��,7.1,��
2023/01/01,03:10,0.564,0.816,0.511,1.048,0.720,0.322,0.585,0.553,��,5.2,��
2023/01/01,03:20,0.565,0.817,0.514,1.048,0.721,0.322,0.583,0.554,���쐼,6.4,��
2023/01/01,03:30,0.564,0.818,0.511,1.047,0.722,0.323,0.583,0.553,��,5.8,��
2023/01/01,03:40,0.564,0.817,0.514,1.048,0.722,0.323,0.584,0.552,��,3.6,��
2023/01/01,03:50,0.565,0.817,0.512,1.048,0.721,0.321,0.582,0.554,��,4.5,��
2023/01/01,04:00,0.563,0.816,0.512,1.048,0.721,0.323,0.583,0.553,��,4.5,��
2023/01/01,04:10,0.566,0.814,0.511,1.049,0.721,0.322,0.583,0.556,��,3.9,��
2023/01/01,04:20,0.565,0.816,0.511,1.046,0.720,0.321,0.582,0.556,���쐼,2.4,��
2023/01/01,04:30,0.565,0.817,0.513,1.046,0.721,0.321,0.583,0.554,�쐼,1.5,��
2023/01/01,04:40,0.564,0.818,0.511,1.048,0.719,0.322,0.583,0.554,��쐼,2.7,��
2023/01/01,04:50,0.564,0.817,0.512,1.048,0.721,0.321,0.582,0.554,��쐼,3.0,��
2023/01/01,05:00,0.564,0.818,0.510,1.047,0.720,0.322,0.583,0.556,���쐼,3.4,��
2023/01/01,05:10,0.564,0.818,0.513,1.049,0.719,0.323,0.583,0.554,�쐼,3.0,��
2023/01/01,05:20,0.565,0.816,0.513,1.048,0.719,0.323,0.583,0.553,�쐼,3.8,��
2023/01/01,05:30,0.564,0.815,0.512,1.046,0.719,0.322,0.581,0.555,���쐼,4.2,��
2023/01/01,05:40,0.565,0.818,0.511,1.046,0.718,0.323,0.583,0.554,���쐼,3.9,��
2023/01/01,05:50,0.564,0.815,0.512,1.046,0.722,0.322,0.583,0.555,�쐼,3.3,��
2023/01/01,06:00,0.565,0.815,0.514,1.047,0.721,0.323,0.583,0.554,���쐼,4.6,��
2023/01/01,06:10,0.565,0.816,0.511,1.047,0.719,0.323,0.581,0.554,���쐼,6.6,��
2023/01/01,06:20,0.566,0.815,0.513,1.046,0.720,0.322,0.582,0.555,�쐼,7.5,��
2023/01/01,06:30,0.563,0.817,0.512,1.046,0.720,0.323,0.583,0.554,�쐼,7.1,��
2023/01/01,06:40,0.564,0.817,0.512,1.048,0.719,0.322,0.582,0.555,���쐼,8.6,��
2023/01/01,06:50,0.565,0.817,0.511,1.047,0.720,0.323,0.583,0.556,���쐼,8.8,��
2023/01/01,07:00,0.565,0.816,0.512,1.049,0.720,0.323,0.584,0.554,���쐼,8.6,��
2023/01/01,07:10,0.564,0.818,0.513,1.049,0.719,0.322,0.583,0.555,���쐼,9.1,��
2023/01/01,07:20,0.567,0.817,0.513,1.047,0.719,0.320,0.584,0.555,���쐼,8.0,��
2023/01/01,07:30,0.565,0.817,0.514,1.047,0.719,0.322,0.585,0.556,���쐼,8.3,��
2023/01/01,07:40,0.566,0.816,0.513,1.049,0.721,0.322,0.585,0.554,�쐼,8.2,��
2023/01/01,07:50,0.566,0.816,0.514,1.049,0.721,0.322,0.584,0.554,�쐼,8.9,�L
2023/01/01,08:00,0.565,0.816,0.515,1.047,0.720,0.323,0.585,0.555,�쐼,10.4,��
2023/01/01,08:10,0.567,0.817,0.513,1.047,0.720,0.323,0.586,0.556,�쐼,9.4,��
2023/01/01,08:20,0.567,0.819,0.514,1.049,0.720,0.324,0.584,0.555,�쐼,10.1,��
2023/01/01,08:30,0.568,0.816,0.514,1.050,0.721,0.323,0.586,0.556,�쐼,9.4,��
2023/01/01,08:40,0.567,0.819,0.514,1.049,0.721,0.324,0.585,0.556,���쐼,9.1,��
2023/01/01,08:50,0.566,0.819,0.514,1.050,0.720,0.323,0.586,0.555,���쐼,8.0,��
2023/01/01,09:00,0.568,0.819,0.515,1.049,0.722,0.324,0.586,0.556,�쐼,6.6,��
2023/01/01,09:10,0.568,0.819,0.514,1.049,0.721,0.324,0.587,0.557,���쐼,6.9,��
2023/01/01,09:20,0.567,0.821,0.515,1.049,0.722,0.324,0.587,0.556,���쐼,5.0,�L
2023/01/01,09:30,0.568,0.820,0.513,1.051,0.723,0.325,0.587,0.557,�쐼,6.3,�L
2023/01/01,09:40,0.568,0.818,0.515,1.050,0.724,0.324,0.585,0.557,�쐼,5.2,��
2023/01/01,09:50,0.568,0.820,0.514,1.048,0.724,0.324,0.586,0.557,�쐼,5.8,�L
2023/01/01,10:00,0.568,0.819,0.515,1.049,0.724,0.325,0.585,0.555,�쐼,4.9,��
2023/01/01,10:10,0.568,0.821,0.514,1.052,0.726,0.326,0.585,0.558,�쐼,4.9,�L
2023/01/01,10:20,0.570,0.821,0.514,1.049,0.723,0.325,0.585,0.556,��쐼,6.3,��
2023/01/01,10:30,0.569,0.822,0.515,1.049,0.724,0.325,0.584,0.557,��쐼,5.5,��
2023/01/01,10:40,0.569,0.822,0.515,1.049,0.724,0.324,0.583,0.556,�쐼,6.0,��
2023/01/01,10:50,0.567,0.820,0.514,1.051,0.725,0.325,0.584,0.555,�쐼,6.6,��
2023/01/01,11:00,0.569,0.819,0.515,1.049,0.723,0.324,0.584,0.556,���쐼,4.5,��
2023/01/01,11:10,0.568,0.820,0.514,1.053,0.723,0.325,0.583,0.556,��쐼,5.5,��
2023/01/01,11:20,0.571,0.820,0.516,1.052,0.724,0.324,0.584,0.557,��쐼,5.3,��
2023/01/01,11:30,0.568,0.820,0.515,1.052,0.726,0.324,0.585,0.558,�쐼,4.9,��
2023/01/01,11:40,0.569,0.822,0.516,1.050,0.726,0.324,0.584,0.557,��쐼,6.0,��
2023/01/01,11:50,0.569,0.820,0.516,1.050,0.725,0.325,0.586,0.558,���쐼,3.8,��
2023/01/01,12:00,0.568,0.820,0.515,1.050,0.725,0.325,0.585,0.556,���쐼,3.2,��
2023/01/01,12:10,0.569,0.821,0.514,1.049,0.725,0.325,0.585,0.557,���쐼,4.1,��
2023/01/01,12:20,0.570,0.820,0.516,1.052,0.724,0.326,0.584,0.556,��쐼,2.7,��
2023/01/01,12:30,0.568,0.819,0.514,1.049,0.726,0.323,0.584,0.556,��,4.7,��
2023/01/01,12:40,0.567,0.821,0.515,1.051,0.725,0.324,0.586,0.558,�쐼,4.4,��
2023/01/01,12:50,0.569,0.821,0.514,1.051,0.726,0.325,0.585,0.556,���쐼,4.1,��
2023/01/01,13:00,0.571,0.820,0.516,1.050,0.726,0.325,0.586,0.558,���쐼,4.4,��
2023/01/01,13:10,0.570,0.820,0.516,1.053,0.726,0.325,0.586,0.557,���쐼,7.1,��
2023/01/01,13:20,0.569,0.821,0.517,1.051,0.726,0.325,0.585,0.557,���쐼,6.6,��
2023/01/01,13:30,0.571,0.821,0.516,1.051,0.726,0.325,0.586,0.558,���쐼,7.1,��
2023/01/01,13:40,0.572,0.820,0.515,1.052,0.725,0.326,0.584,0.557,���쐼,8.2,��
2023/01/01,13:50,0.570,0.817,0.515,1.052,0.725,0.325,0.585,0.557,���쐼,8.3,��
2023/01/01,14:00,0.569,0.817,0.516,1.050,0.728,0.325,0.585,0.555,��,12.3,��
2023/01/01,14:10,0.569,0.817,0.514,1.051,0.726,0.326,0.585,0.555,��,6.4,��
2023/01/01,14:20,0.569,0.816,0.513,1.051,0.725,0.324,0.585,0.556,���쐼,11.0,��
2023/01/01,14:30,0.569,0.816,0.514,1.050,0.726,0.326,0.586,0.555,��,10.4,��
2023/01/01,14:40,0.567,0.816,0.516,1.051,0.725,0.325,0.586,0.555,��,8.2,��
2023/01/01,14:50,0.568,0.817,0.513,1.051,0.727,0.325,0.585,0.556,��,9.4,��
2023/01/01,15:00,0.568,0.819,0.516,1.051,0.725,0.325,0.584,0.556,��,8.8,��
2023/01/01,15:10,0.569,0.821,0.515,1.051,0.727,0.325,0.585,0.557,��,8.8,��
2023/01/01,15:20,0.567,0.820,0.515,1.051,0.724,0.323,0.585,0.557,���k��,7.1,��
2023/01/01,15:30,0.567,0.819,0.515,1.050,0.726,0.324,0.586,0.557,���k��,6.3,��
2023/01/01,15:40,0.568,0.821,0.517,1.051,0.726,0.326,0.585,0.557,��,9.3,��
2023/01/01,15:50,0.568,0.821,0.515,1.050,0.725,0.325,0.585,0.558,��,6.9,��
2023/01/01,16:00,0.567,0.820,0.516,1.051,0.724,0.324,0.586,0.558,���k��,7.7,��
2023/01/01,16:10,0.569,0.820,0.515,1.051,0.725,0.323,0.586,0.558,��,6.1,��
2023/01/01,16:20,0.567,0.821,0.517,1.052,0.724,0.325,0.586,0.557,��,5.6,��
2023/01/01,16:30,0.568,0.821,0.514,1.052,0.726,0.326,0.587,0.558,��,6.3,��
2023/01/01,16:40,0.569,0.820,0.515,1.050,0.724,0.325,0.587,0.558,��,6.9,��
2023/01/01,16:50,0.568,0.821,0.515,1.051,0.726,0.325,0.586,0.558,��,4.9,��
2023/01/01,17:00,0.568,0.821,0.516,1.051,0.724,0.323,0.589,0.556,��,4.1,��
2023/01/01,17:10,0.570,0.820,0.515,1.051,0.726,0.325,0.586,0.558,���k��,3.4,��
2023/01/01,17:20,0.569,0.820,0.514,1.051,0.724,0.324,0.588,0.559,�k�k��,1.6,��
2023/01/01,17:30,0.566,0.820,0.516,1.050,0.725,0.325,0.586,0.558,���k��,2.2,��
2023/01/01,17:40,0.569,0.821,0.515,1.052,0.726,0.324,0.586,0.559,���k��,2.8,��
2023/01/01,17:50,0.568,0.821,0.516,1.051,0.726,0.324,0.586,0.558,���k��,3.5,��
2023/01/01,18:00,0.569,0.821,0.515,1.050,0.727,0.325,0.587,0.558,���k��,2.8,��
2023/01/01,18:10,0.565,0.823,0.515,1.052,0.726,0.323,0.587,0.557,���k��,3.8,��
2023/01/01,18:20,0.568,0.821,0.516,1.053,0.726,0.324,0.586,0.558,���k��,5.2,��
2023/01/01,18:30,0.567,0.819,0.513,1.050,0.726,0.324,0.586,0.556,���k��,6.9,��
2023/01/01,18:40,0.567,0.820,0.514,1.052,0.725,0.325,0.586,0.557,���k��,6.1,��
2023/01/01,18:50,0.567,0.821,0.516,1.052,0.724,0.323,0.586,0.557,��,5.2,��
2023/01/01,19:00,0.567,0.821,0.514,1.053,0.725,0.324,0.586,0.556,��,4.9,��
2023/01/01,19:10,0.569,0.820,0.515,1.051,0.725,0.323,0.585,0.557,��,3.8,��
2023/01/01,19:20,0.567,0.818,0.515,1.052,0.724,0.322,0.587,0.557,�k��,4.2,��
2023/01/01,19:30,0.567,0.820,0.515,1.052,0.725,0.323,0.585,0.556,�k��,5.2,��
2023/01/01,19:40,0.567,0.820,0.516,1.052,0.723,0.324,0.586,0.558,���k��,7.1,��
2023/01/01,19:50,0.568,0.819,0.516,1.052,0.725,0.323,0.584,0.555,���k��,8.5,��
2023/01/01,20:00,0.567,0.821,0.513,1.052,0.726,0.323,0.587,0.557,�k��,8.3,��
2023/01/01,20:10,0.568,0.820,0.513,1.053,0.725,0.323,0.587,0.556,�k��,6.3,��
2023/01/01,20:20,0.565,0.820,0.514,1.052,0.725,0.322,0.585,0.557,�k��,5.2,��
2023/01/01,20:30,0.568,0.820,0.513,1.054,0.726,0.323,0.585,0.557,�k��,4.5,��
2023/01/01,20:40,0.566,0.821,0.514,1.050,0.726,0.323,0.585,0.556,�k��,4.9,��
2023/01/01,20:50,0.567,0.820,0.512,1.050,0.725,0.323,0.585,0.556,�k��,3.4,��
2023/01/01,21:00,0.568,0.820,0.515,1.053,0.724,0.324,0.586,0.557,�k�k��,2.7,��
2023/01/01,21:10,0.567,0.820,0.515,1.050,0.725,0.325,0.585,0.556,�k��,1.2,��
2023/01/01,21:20,0.568,0.821,0.514,1.052,0.725,0.324,0.584,0.559,�k��,3.0,��
2023/01/01,21:30,0.566,0.817,0.514,1.053,0.726,0.323,0.585,0.557,���k��,4.6,��
2023/01/01,21:40,0.565,0.821,0.515,1.052,0.724,0.323,0.586,0.557,���k��,7.1,��
2023/01/01,21:50,0.566,0.820,0.514,1.052,0.725,0.324,0.585,0.556,���k��,7.1,��
2023/01/01,22:00,0.567,0.820,0.515,1.052,0.724,0.322,0.586,0.557,���k��,8.8,��
2023/01/01,22:10,0.566,0.819,0.514,1.049,0.725,0.323,0.585,0.556,���k��,7.1,��
2023/01/01,22:20,0.566,0.818,0.515,1.051,0.726,0.323,0.585,0.556,���k��,6.6,��
2023/01/01,22:30,0.566,0.821,0.514,1.055,0.723,0.323,0.586,0.555,���k��,6.3,��
2023/01/01,22:40,0.565,0.820,0.513,1.050,0.725,0.324,0.586,0.556,���k��,7.2,��
2023/01/01,22:50,0.566,0.819,0.513,1.052,0.723,0.324,0.585,0.556,���k��,6.3,��
2023/01/01,23:00,0.569,0.820,0.514,1.052,0.723,0.323,0.584,0.556,���k��,5.5,��
2023/01/01,23:10,0.567,0.820,0.514,1.049,0.725,0.323,0.585,0.555,���k��,6.3,��
2023/01/01,23:20,0.566,0.820,0.513,1.050,0.723,0.324,0.586,0.556,���k��,6.0,��
2023/01/01,23:30,0.565,0.819,0.514,1.052,0.725,0.323,0.583,0.556,�k��,7.7,��
2023/01/01,23:40,0.566,0.820,0.514,1.052,0.724,0.323,0.585,0.556,�k��,6.7,��
2023/01/01,23:50,0.565,0.818,0.514,1.051,0.724,0.324,0.586,0.555,�k��,4.6,��
